Wind_Speed
25 25 24 24 23 23 22 22 21 21 20 19 19 18 18 17 17 16 16 16 15 15 15 15 14 14 14 14 14 15 15 16 16 16 17 17 17 18 19 20 20 20 21 21 22 23 24 24 24 25 24 24 24 24 23 22 22 21 20 20 20 21 22 24 24 24 24 24 24 21 20 21 22 22 22 23 25 24 24 24 24 23 24 26 26 23 22 21
27 26 25 25 24 23 23 22 22 21 21 20 20 19 19 19 18 18 18 18 18 18 18 17 17 17 17 17 17 17 18 19 19 19 19 19 20 21 22 22 23 23 23 24 24 25 26 26 26 26 26 25 25 25 23 22 22 21 21 21 20 22 24 25 26 26 25 23 24 23 21 21 22 23 23 22 24 25 25 25 26 24 24 27 27 24 22 21
27 27 26 26 25 24 24 23 23 22 22 22 22 21 21 21 21 21 21 21 21 21 20 20 20 20 20 20 20 20 21 22 23 22 22 22 23 23 24 24 25 25 25 26 26 27 27 27 27 27 27 26 24 24 23 21 22 21 22 22 21 24 25 25 27 27 27 25 23 23 23 23 23 24 24 23 22 23 25 25 26 25 24 26 27 24 22 22
28 27 27 26 26 26 25 25 25 24 24 24 24 24 24 24 24 24 24 23 24 24 23 23 23 23 23 23 23 23 24 26 26 25 24 25 25 26 26 26 26 26 27 27 27 27 27 27 28 27 27 26 24 24 23 22 23 22 21 23 24 26 26 26 28 27 27 27 24 25 25 25 24 24 25 24 19 19 24 26 25 23 22 25 26 24 22 22
29 28 28 28 28 28 27 27 27 27 27 27 27 27 27 27 27 27 27 27 27 27 26 26 26 26 26 26 26 26 27 29 29 27 27 28 28 28 28 28 28 28 27 27 27 27 27 28 28 28 27 26 24 23 24 24 25 24 22 23 25 27 28 26 28 27 28 29 26 26 27 26 25 25 26 23 17 17 22 26 25 22 21 22 24 24 22 22
31 30 30 30 30 30 30 30 30 30 30 30 30 30 30 29 30 30 29 30 29 30 29 29 29 29 29 29 29 29 30 32 32 30 30 31 31 30 29 29 28 28 27 27 27 27 28 28 28 28 27 26 25 24 25 26 27 26 23 25 27 29 29 28 29 28 29 30 29 28 29 28 27 28 26 20 16 17 22 26 25 21 21 21 21 23 24 24
33 33 33 33 33 33 33 33 32 33 33 33 33 32 33 32 32 32 32 32 32 32 32 32 32 32 32 31 31 31 31 34 35 33 32 32 32 30 29 28 27 27 27 27 28 28 28 28 28 29 27 26 26 26 28 28 29 28 26 27 30 30 29 29 31 29 29 31 30 31 31 29 30 30 24 18 18 19 24 27 25 22 21 22 21 22 24 24
36 36 36 36 36 36 36 36 36 36 36 36 36 36 36 35 35 35 35 35 35 35 34 35 34 34 34 33 33 32 30 34 36 34 33 32 30 29 27 27 27 27 28 28 29 29 29 30 30 30 29 28 28 28 30 30 31 30 29 30 31 31 30 30 31 30 30 32 32 34 33 31 32 32 23 19 21 23 27 28 25 24 23 23 23 22 23 22
39 39 39 38 38 38 38 38 38 38 38 38 38 38 38 38 38 38 37 37 37 37 36 36 35 35 34 32 32 29 28 33 35 34 32 30 28 27 27 27 28 28 29 30 31 31 31 31 31 31 31 30 29 30 31 33 33 33 32 32 32 32 30 30 30 31 32 33 35 37 35 32 33 33 24 21 25 27 29 29 27 27 25 24 24 23 22 22
39 39 39 39 39 39 38 38 38 38 38 38 38 38 38 38 38 38 38 37 37 37 36 35 34 33 32 30 28 24 25 32 33 32 31 29 28 27 27 28 29 30 31 31 32 33 32 32 32 32 33 31 31 32 33 34 35 35 35 34 32 32 31 30 30 31 34 36 37 39 37 33 34 34 26 24 31 30 29 29 29 29 26 26 25 23 23 22
39 38 38 38 38 37 37 37 36 36 36 36 35 36 36 36 36 36 36 36 35 35 35 34 32 31 29 27 24 21 25 31 31 31 31 30 29 28 29 30 31 32 33 33 34 34 34 34 34 35 35 33 33 34 35 35 37 36 37 36 33 33 32 30 31 32 36 37 37 40 40 34 34 35 28 28 34 33 31 30 30 30 28 27 26 25 25 24
38 38 38 37 37 37 37 36 36 35 35 35 34 34 34 34 34 34 34 34 34 34 33 32 31 31 29 26 23 24 27 29 31 32 33 32 32 31 33 34 34 35 35 35 36 36 36 36 36 37 36 36 36 36 36 36 37 37 38 39 35 35 34 31 33 34 36 37 36 40 42 36 33 34 31 32 35 34 34 33 30 30 30 28 27 26 26 25
40 39 39 39 39 38 38 38 38 37 37 37 36 36 35 35 35 35 34 34 34 34 34 34 33 32 31 27 25 28 30 30 33 34 35 36 36 36 36 37 36 37 37 37 37 38 38 38 38 39 38 37 37 37 37 37 37 36 40 42 37 38 36 33 35 35 36 38 36 41 46 40 34 34 33 33 35 35 36 35 32 30 30 29 28 27 27 27
43 43 42 42 42 41 41 41 41 41 40 40 39 39 38 38 38 37 37 37 37 37 36 36 36 36 35 31 29 31 33 34 36 37 39 39 38 38 38 38 38 38 38 39 39 40 40 40 40 40 39 38 39 38 39 39 38 36 40 43 40 42 39 34 35 33 36 40 38 42 48 44 37 34 34 34 35 36 36 34 32 30 30 30 28 28 28 27
45 45 45 45 44 44 44 44 44 43 43 43 42 41 41 41 41 41 41 40 40 40 40 40 40 40 39 35 33 34 35 37 38 39 40 40 39 39 39 39 39 39 40 41 41 41 42 42 42 42 41 39 39 39 39 41 40 36 41 44 43 45 43 38 35 31 34 40 41 43 49 48 40 35 36 35 34 35 36 33 31 30 28 28 28 28 28 28
46 46 46 46 46 46 45 45 45 45 44 44 43 43 43 43 43 43 43 43 43 43 43 43 43 43 43 38 35 36 36 38 39 40 40 41 40 40 40 41 41 41 42 42 42 43 43 44 44 43 43 40 38 39 40 43 42 39 43 46 44 45 45 43 40 33 32 39 43 45 48 49 43 39 38 37 35 34 35 33 29 28 28 28 28 28 29 29
46 46 46 46 46 46 46 46 46 45 45 45 44 44 44 44 44 44 45 45 45 44 44 44 44 44 44 40 37 37 38 39 41 41 41 42 42 42 42 42 42 43 43 43 43 43 43 45 45 45 44 40 38 39 42 46 45 43 46 48 47 46 45 44 41 36 34 38 44 46 47 46 43 41 38 36 36 37 36 33 31 29 28 29 28 29 31 31
45 45 46 46 46 46 46 46 46 46 46 45 45 45 45 45 45 45 46 45 45 45 45 45 44 45 46 42 40 40 40 41 42 42 42 42 42 43 43 43 43 43 44 44 44 43 44 46 46 46 45 39 38 41 45 47 46 47 49 49 49 49 48 46 42 39 38 40 42 44 45 44 43 41 37 35 36 38 38 34 33 32 30 30 30 30 32 33
47 47 47 47 47 47 47 47 47 48 47 47 47 47 46 47 46 47 47 47 47 47 47 47 46 47 47 45 44 43 43 43 43 42 42 42 43 43 44 44 44 45 45 45 45 45 45 47 48 48 44 40 41 45 47 47 47 50 52 51 52 51 51 49 45 43 44 45 44 43 44 45 46 44 40 39 38 40 40 35 34 34 33 33 33 32 32 34
48 48 48 48 49 49 49 49 49 50 50 50 49 49 49 49 49 50 49 49 49 49 49 49 49 49 48 47 47 46 46 45 44 43 42 42 43 44 45 45 45 46 46 46 48 46 46 50 51 47 43 42 46 48 48 48 48 52 54 54 53 53 53 51 48 47 48 50 48 46 46 47 48 47 44 44 42 41 41 39 36 35 35 36 35 34 33 36
48 48 49 49 49 49 50 50 50 51 51 51 51 51 51 51 51 52 51 50 50 50 50 50 51 50 48 49 49 48 48 48 46 44 43 44 44 45 46 46 46 47 47 48 49 48 48 52 53 48 45 46 48 49 49 50 51 52 54 55 55 55 55 53 52 51 50 51 51 50 51 50 50 50 49 48 47 45 44 41 38 35 34 35 34 34 35 38
48 48 49 49 49 50 50 50 51 51 51 52 52 52 52 52 52 53 53 52 50 49 51 51 51 52 50 51 50 48 50 49 46 45 44 44 44 45 47 46 46 48 49 48 48 49 50 52 53 50 48 49 50 50 51 53 53 53 54 55 56 56 56 55 55 55 52 52 53 53 54 54 53 53 53 52 50 48 48 45 41 38 35 34 34 35 37 38
48 48 48 49 50 50 50 51 51 52 52 53 53 53 53 52 53 54 54 54 51 49 50 51 52 52 52 52 50 49 50 49 47 46 43 44 45 45 47 47 47 48 50 48 47 49 51 53 54 50 48 50 51 51 53 54 54 54 54 56 57 56 56 57 57 57 56 54 54 55 56 55 56 56 55 56 56 52 50 50 49 47 44 40 37 36 36 38
49 48 48 48 48 49 50 51 52 54 55 54 54 54 54 54 54 55 55 56 55 51 50 51 53 54 53 53 52 51 51 49 49 48 45 45 47 46 47 48 47 48 49 47 47 49 50 53 55 51 49 51 53 53 54 54 54 54 55 57 57 55 56 58 58 59 59 58 57 57 57 57 58 59 57 56 59 56 54 54 53 52 52 49 46 41 37 38
51 50 49 48 48 49 50 52 53 55 56 56 56 55 55 55 56 56 56 58 58 55 52 52 54 55 55 55 54 53 52 51 49 49 47 47 48 47 46 47 47 47 47 47 47 49 50 52 53 52 51 52 53 54 53 54 54 54 56 57 55 54 56 57 57 59 60 60 61 60 59 59 59 60 58 56 58 59 59 58 57 56 55 53 52 49 44 38
53 52 52 51 50 50 50 51 52 53 54 55 56 56 56 57 57 58 58 59 61 59 57 56 55 56 56 56 55 53 51 50 49 49 48 47 46 46 46 46 46 46 48 48 48 49 50 49 49 50 51 52 52 52 52 53 54 55 55 54 54 55 56 56 57 59 60 61 62 61 61 61 60 60 60 58 58 60 60 60 60 61 60 57 54 51 48 41
54 54 53 52 51 50 49 48 48 49 50 52 54 55 56 57 57 57 58 59 61 60 60 59 57 56 55 53 54 52 49 49 48 47 46 45 44 44 45 46 45 46 48 49 49 50 49 48 49 50 51 52 52 51 52 53 54 56 55 54 54 56 56 57 58 59 60 61 61 62 62 62 62 61 60 59 59 61 61 59 60 61 61 58 50 42 41 42
52 52 52 52 51 50 49 48 47 46 47 49 50 53 54 53 53 53 54 57 59 59 58 57 57 56 52 50 50 49 48 48 47 46 45 44 43 43 44 45 45 46 46 47 48 49 48 48 49 50 50 51 51 51 52 52 53 54 54 54 54 55 55 56 57 58 59 61 61 61 62 62 61 60 60 61 60 61 61 59 59 57 54 52 43 35 36 39
49 51 52 52 51 51 50 50 49 48 48 49 50 52 52 51 51 50 50 53 56 57 55 54 54 54 51 50 49 47 47 46 46 46 45 44 44 44 44 45 46 46 45 45 46 46 46 47 47 48 48 48 48 49 49 49 51 51 52 52 53 53 54 55 56 57 57 59 60 59 59 59 59 58 58 60 59 59 60 60 58 54 50 47 44 42 41 40
46 45 48 53 53 52 51 49 48 49 48 50 51 52 53 52 51 50 51 54 56 56 54 52 51 51 50 49 48 47 47 46 46 46 46 46 46 45 45 45 44 44 45 44 44 45 45 45 45 45 45 45 46 46 46 46 47 48 49 51 52 52 53 54 55 55 55 57 57 56 56 56 57 56 56 57 57 57 59 59 56 53 50 47 45 44 44 43
44 42 47 54 53 48 48 46 45 46 46 48 49 51 52 52 52 53 56 58 56 54 54 53 51 50 50 49 48 47 47 47 47 47 47 47 47 47 47 47 47 47 48 48 48 48 47 46 46 45 44 45 46 46 45 45 46 47 48 50 52 53 53 54 55 55 55 56 55 56 56 56 57 57 56 57 56 57 60 59 55 53 50 48 48 47 47 48
46 48 50 56 55 48 46 46 46 45 46 47 47 49 50 51 54 56 58 57 53 52 52 51 51 49 49 48 48 48 48 49 50 50 50 49 49 50 50 50 51 50 51 52 53 53 51 50 49 48 47 46 46 46 46 46 46 47 48 49 51 52 53 55 56 56 56 55 56 57 58 59 61 60 58 57 57 58 59 58 55 54 52 51 52 53 54 53
48 51 50 53 56 54 52 51 50 48 47 47 47 48 49 51 55 57 55 51 48 48 48 48 48 48 48 49 50 52 52 53 53 52 51 50 50 50 49 49 49 49 51 52 54 55 55 54 52 50 49 47 46 46 47 48 48 48 48 49 50 51 53 55 55 55 55 56 58 59 60 61 63 64 63 61 60 59 59 58 57 56 54 54 54 55 56 56
49 51 49 48 48 48 49 49 50 48 47 46 46 47 49 51 55 55 52 47 44 43 43 45 47 48 50 52 54 55 53 53 52 50 49 49 49 48 46 45 47 48 49 50 51 53 55 56 56 54 51 50 49 47 46 47 48 49 49 49 51 52 52 53 53 54 55 56 57 58 60 62 62 63 64 63 63 63 62 62 61 59 58 57 57 55 56 58
51 50 48 46 44 41 41 43 44 46 47 46 46 47 49 51 52 52 49 47 44 42 42 44 46 49 53 56 57 57 55 55 53 51 49 49 49 48 47 47 47 48 49 50 52 53 55 56 56 56 54 53 53 51 50 50 50 50 50 49 50 48 47 49 51 52 54 57 60 61 62 63 61 61 63 63 64 65 64 63 61 60 59 59 60 60 60 61
54 53 50 50 49 46 45 44 44 46 47 47 48 49 49 49 50 50 50 48 47 46 46 46 48 51 54 57 58 58 58 56 55 54 53 53 52 51 51 51 52 52 53 54 55 57 58 59 58 57 56 54 53 53 53 53 53 54 53 51 50 49 49 52 55 53 53 58 60 59 61 61 58 58 61 62 62 63 64 64 63 62 62 62 64 65 66 65
58 57 55 54 55 55 53 52 52 53 53 53 52 50 48 50 50 51 51 51 52 52 52 52 54 54 55 56 57 59 59 58 57 57 56 56 57 56 55 55 55 56 56 56 58 59 60 62 62 61 61 59 57 55 56 56 57 58 58 57 57 58 59 60 62 61 60 64 62 57 57 58 57 60 62 64 64 63 64 65 67 68 69 70 70 70 69 69
62 63 62 61 62 62 62 62 63 64 63 62 59 54 52 53 53 53 54 55 56 57 57 57 57 57 57 58 58 58 60 61 60 60 59 59 60 59 58 58 57 57 57 57 57 58 59 61 62 62 63 63 60 59 59 59 59 60 61 61 62 64 66 65 67 67 65 68 68 65 64 63 63 66 68 70 71 70 69 69 69 69 69 70 70 70 68 66
66 68 69 68 69 69 69 70 69 69 70 69 66 62 61 60 59 60 59 57 58 59 60 60 60 59 60 61 60 59 61 62 62 62 62 62 62 60 59 60 60 59 59 57 57 57 57 59 60 59 59 61 60 59 60 59 59 60 61 62 62 64 65 65 66 67 67 68 69 69 69 68 68 69 70 71 72 71 71 70 68 66 64 64 65 65 65 64
70 72 72 72 73 74 73 73 72 72 73 72 70 69 68 67 66 64 62 60 59 60 61 62 62 63 63 63 63 62 62 62 61 61 61 61 61 60 60 60 60 59 58 56 56 56 55 56 58 58 58 60 60 58 58 57 58 60 60 60 60 61 62 62 64 65 66 67 66 65 67 67 66 67 67 68 68 67 66 65 65 65 64 64 64 63 64 65
70 72 72 72 74 74 73 74 75 75 75 74 73 71 69 68 67 66 65 63 61 61 61 62 62 63 63 62 61 60 60 60 59 59 60 60 59 58 58 58 57 56 55 55 55 56 56 56 57 57 58 60 59 57 58 58 57 56 55 54 55 55 56 58 61 61 60 62 62 61 63 62 58 58 60 62 63 62 60 60 61 63 65 67 67 67 67 67
67 69 69 70 72 72 72 73 74 74 75 74 72 69 66 66 66 65 65 63 62 60 59 59 59 59 59 59 58 57 58 59 58 57 58 57 56 56 57 56 56 55 54 55 56 56 56 57 58 58 58 58 57 57 58 57 55 53 52 51 51 51 52 53 56 56 54 57 57 55 58 56 49 47 50 53 55 56 58 61 64 67 69 71 71 71 71 71
66 66 66 67 69 70 71 72 72 73 73 71 69 66 64 63 63 63 62 59 57 55 54 53 53 53 54 55 56 55 55 57 58 56 56 55 55 55 56 55 55 54 54 55 55 55 55 56 56 56 56 56 56 56 57 56 54 54 54 53 52 51 51 51 53 53 53 55 53 50 53 52 47 46 49 52 56 59 63 66 69 69 70 70 70 70 71 72
66 67 67 67 69 70 71 71 70 70 69 68 67 66 65 63 61 60 58 56 53 51 50 49 49 50 51 52 53 52 53 56 56 54 54 54 53 53 53 53 54 54 54 54 55 55 56 56 55 55 57 58 57 57 58 57 56 55 54 54 54 54 54 55 55 54 55 56 54 54 57 57 55 55 57 59 61 63 65 65 65 65 66 67 67 67 67 68
67 67 67 68 69 70 70 69 68 68 67 66 66 65 64 63 61 58 56 54 52 51 50 51 50 50 50 51 52 51 52 54 54 53 53 53 53 52 52 52 53 52 53 53 54 55 57 57 57 57 59 60 60 59 58 58 57 56 55 55 58 58 59 60 60 58 57 57 56 56 56 56 55 55 56 56 57 58 60 61 63 64 65 65 65 65 66 67
67 68 68 68 69 69 69 68 67 67 65 64 63 62 61 60 59 57 55 54 54 53 53 53 52 52 52 52 52 52 51 52 53 53 52 52 53 52 51 52 53 53 53 54 55 56 57 58 58 58 60 60 60 59 58 58 60 60 59 60 62 61 61 62 65 66 66 66 67 65 63 63 63 62 62 64 64 65 67 68 71 73 72 71 71 73 74 75
67 68 67 67 68 68 68 67 66 65 63 62 62 61 60 59 58 58 57 56 55 55 55 55 54 54 54 53 53 53 52 51 53 53 52 52 53 54 54 54 55 55 56 56 57 57 59 60 59 59 61 60 60 60 59 60 62 62 63 63 62 62 62 64 67 69 70 72 75 73 71 73 74 72 73 75 76 77 77 78 79 81 83 84 85 86 87 87
66 66 66 66 66 67 67 66 64 63 63 62 62 62 61 60 59 59 59 58 57 55 55 56 56 55 55 55 55 55 53 53 55 54 53 54 55 56 57 57 57 58 58 59 59 59 61 62 60 60 62 61 61 62 61 62 64 64 65 65 63 63 64 66 69 71 71 74 77 74 73 76 76 75 76 78 79 80 80 80 81 83 85 87 89 90 90 91
66 65 65 65 66 65 65 64 63 63 63 62 63 62 62 60 60 59 59 58 58 57 56 57 57 56 56 55 56 56 55 55 56 56 55 56 57 58 59 59 60 59 58 59 60 60 62 63 62 62 64 63 61 62 63 64 66 66 66 65 65 65 65 67 69 70 70 73 75 74 75 76 75 75 77 78 79 81 81 81 82 84 85 87 87 88 88 89
66 65 65 65 65 64 64 63 63 63 63 63 63 61 60 60 59 59 60 59 58 58 57 58 58 57 57 56 57 57 56 56 57 57 57 58 58 59 60 60 60 60 59 59 60 60 61 63 63 63 64 64 62 61 63 65 66 67 67 66 65 65 66 67 67 67 69 72 72 72 74 75 74 74 76 76 77 78 79 80 81 82 84 85 85 86 86 87
64 64 64 64 64 64 64 64 63 63 63 62 62 60 58 58 58 59 60 60 59 58 57 57 58 57 57 57 57 57 57 56 57 57 58 58 59 59 59 60 59 59 59 59 60 60 60 62 62 62 64 65 61 61 64 66 66 68 68 66 65 65 66 66 66 67 69 71 73 74 76 77 77 77 77 78 78 78 78 80 81 82 83 84 84 84 85 86
63 62 62 63 63 63 62 62 62 63 63 62 61 59 59 59 58 58 60 60 59 58 58 58 57 57 57 58 57 57 57 57 58 58 58 58 59 59 59 58 58 58 58 59 60 60 60 62 62 62 66 66 62 63 67 67 69 71 70 66 64 64 66 68 69 69 70 72 75 77 78 79 79 80 80 80 81 81 80 81 82 84 85 85 85 85 85 87
Wind_Direction
257 258 259 260 260 261 262 262 262 263 263 262 263 263 263 262 262 261 261 261 261 261 263 264 266 268 270 273 276 278 280 281 281 281 282 283 282 282 282 283 283 283 284 284 284 285 286 286 286 286 287 288 288 289 289 290 291 294 296 299 302 297 296 300 300 301 304 306 306 306 303 300 298 297 298 299 299 298 295 293 292 292 292 290 290 290 290 287
257 257 258 258 259 260 260 261 261 261 261 261 261 261 262 262 262 263 263 263 264 264 266 267 268 270 272 273 276 278 280 280 280 281 282 281 280 280 280 280 282 282 283 282 282 283 283 284 284 285 285 286 287 287 288 289 290 293 295 299 300 294 297 301 300 301 305 306 304 304 303 299 298 299 301 300 298 298 297 293 292 295 296 294 294 295 294 289
256 256 256 256 257 258 258 259 259 260 260 261 262 263 264 264 265 266 266 267 268 269 270 271 272 273 274 275 277 278 280 280 279 279 280 279 278 279 279 279 280 281 281 281 281 281 282 282 282 283 284 285 285 285 286 287 288 292 296 298 297 294 297 299 298 301 304 304 304 302 301 299 298 301 302 301 304 304 300 294 292 296 296 294 294 297 298 294
254 254 255 255 256 256 257 258 259 260 261 262 263 264 265 266 267 268 269 270 270 272 272 274 275 276 277 278 278 279 280 280 279 279 278 278 278 278 278 279 280 280 281 281 280 281 281 281 282 283 283 283 283 283 285 286 286 290 294 296 295 293 294 295 297 300 300 301 302 300 299 297 297 299 299 303 318 320 305 297 295 295 293 292 294 298 298 296
252 253 254 254 255 256 257 258 260 261 262 264 264 265 267 267 269 269 270 271 272 273 274 275 276 277 278 279 279 280 281 279 279 279 278 278 278 278 279 280 281 280 280 279 279 279 280 281 282 282 282 282 281 281 282 284 285 288 291 292 292 291 293 295 295 297 297 298 299 297 295 294 295 296 296 306 328 326 304 294 292 293 294 295 296 297 295 294
252 253 254 255 256 257 258 260 261 262 263 264 265 266 267 268 269 270 271 272 273 274 275 275 276 277 278 279 279 280 280 279 278 278 278 277 277 278 280 280 279 279 278 278 278 279 280 281 281 281 280 280 280 280 281 282 283 286 290 290 289 290 294 294 293 294 295 295 295 293 291 292 294 292 295 312 328 315 296 287 290 296 298 298 297 294 291 291
253 254 255 256 257 258 260 261 262 263 264 265 266 267 267 268 269 270 270 271 272 273 274 275 276 277 277 278 278 279 280 278 277 277 276 275 276 278 277 276 276 276 276 278 279 280 280 281 280 280 280 279 279 280 281 282 282 285 289 288 288 291 293 292 292 294 292 291 291 289 289 290 291 292 300 318 319 302 287 285 293 300 299 299 298 293 291 292
253 254 255 256 258 259 260 261 262 263 264 265 266 266 267 268 268 269 270 270 271 272 273 274 275 275 275 276 276 277 278 275 274 275 274 274 274 274 274 274 275 276 277 279 280 280 280 280 280 280 280 279 279 280 280 281 282 285 288 287 289 291 290 289 291 292 290 288 287 286 287 288 289 294 308 318 306 292 284 288 297 299 299 299 298 295 296 299
254 255 256 257 258 259 260 261 262 263 264 265 265 266 266 266 267 268 268 269 270 271 272 272 273 273 273 274 273 275 274 270 271 273 273 273 272 272 273 274 275 277 279 280 281 281 281 281 281 280 279 278 279 280 280 281 283 286 287 286 288 289 288 288 289 290 289 286 285 285 287 289 290 294 310 312 293 285 286 292 296 295 297 296 295 297 298 300
255 256 257 258 259 260 261 261 262 263 264 265 265 265 266 266 267 267 267 268 269 269 270 270 270 270 270 270 271 272 267 266 269 272 272 273 272 272 273 274 276 278 279 280 281 281 282 281 281 281 280 280 280 280 280 282 284 286 287 286 286 286 286 287 289 290 287 286 287 289 290 292 291 294 305 300 286 285 288 292 294 293 295 294 295 298 297 297
255 256 257 258 259 260 261 262 262 263 264 265 265 266 266 266 267 267 267 267 267 268 268 268 267 267 267 267 269 267 262 264 269 271 272 272 272 273 274 276 277 278 279 280 280 281 281 281 281 281 281 282 281 280 282 284 285 286 287 286 285 285 285 288 289 287 286 288 293 293 292 293 291 293 298 291 285 288 289 290 291 292 293 294 295 296 294 294
255 256 257 257 258 259 260 261 262 263 264 265 265 266 267 267 267 267 267 267 267 266 267 267 266 266 266 266 268 264 262 266 270 271 272 273 273 274 275 277 278 279 280 280 280 280 280 280 280 280 281 282 281 282 282 283 284 287 287 285 285 285 285 287 287 287 290 293 296 293 290 290 290 291 293 288 286 288 288 289 290 290 293 294 294 293 291 289
255 256 256 257 257 258 259 260 261 263 264 265 266 266 267 267 267 267 267 267 266 266 267 266 267 267 266 266 267 266 266 268 270 272 273 274 276 277 277 278 279 279 280 280 280 280 280 280 280 280 281 282 282 283 283 283 283 286 286 285 287 285 283 284 284 289 294 293 294 292 289 289 289 291 291 289 288 288 286 288 289 291 293 293 292 290 287 284
256 256 257 257 258 258 259 261 262 263 264 265 266 266 266 267 267 268 268 267 267 267 267 268 268 267 267 267 266 267 269 269 270 271 273 275 276 277 278 279 279 279 280 280 280 280 281 281 281 281 282 282 282 283 284 284 283 285 285 285 288 284 282 283 283 289 292 290 290 289 287 287 288 291 291 290 290 289 289 289 291 292 292 290 288 284 280 277
257 257 258 258 258 259 260 261 261 262 263 264 265 265 266 266 266 267 267 267 268 268 269 269 269 269 268 267 267 267 268 269 270 271 272 273 274 275 276 277 278 279 279 279 280 281 282 282 282 282 281 281 283 284 285 285 284 286 285 284 286 285 286 286 284 286 288 287 287 286 285 286 289 291 290 289 290 291 292 293 294 292 288 285 282 278 274 271
258 258 259 259 259 260 260 260 261 261 262 263 263 264 265 265 266 266 266 267 267 268 269 269 270 270 270 269 268 268 268 268 269 269 271 272 273 274 275 275 276 277 277 279 280 280 281 281 281 281 281 282 284 286 287 285 285 287 284 283 284 285 288 289 288 289 286 284 284 282 283 286 291 291 289 291 293 293 292 293 294 291 287 284 280 276 272 268
260 260 260 261 261 261 261 261 261 261 262 262 262 262 263 264 264 265 266 266 266 267 268 269 269 270 271 271 269 268 267 267 267 269 270 271 273 273 274 275 276 276 276 277 277 278 279 279 280 280 280 282 286 287 285 283 285 286 284 283 286 286 285 285 287 289 285 281 281 280 282 285 288 288 288 292 293 291 290 292 294 292 290 286 281 278 273 268
261 262 262 262 263 263 263 263 263 263 263 263 263 263 263 263 264 265 265 266 266 267 267 268 269 270 270 271 270 268 267 267 267 268 269 271 272 273 274 274 275 275 275 276 276 277 277 277 278 278 280 284 286 284 281 281 284 286 285 286 287 287 286 286 287 288 284 277 276 279 282 286 287 287 289 290 288 286 286 290 293 293 292 287 283 279 275 273
261 262 262 263 263 264 264 264 265 265 264 264 264 264 264 264 265 265 266 266 267 268 268 268 269 269 270 271 270 269 267 267 267 267 269 270 271 272 273 273 274 274 274 275 275 275 276 277 276 276 281 285 282 278 277 280 284 284 285 286 286 286 286 287 289 289 285 279 276 278 281 283 285 287 290 289 285 283 285 287 288 290 290 287 283 281 278 275
261 262 262 262 263 264 264 265 265 265 265 265 265 265 266 266 266 266 266 267 267 267 268 269 269 268 270 271 269 269 268 267 266 267 268 269 270 270 270 271 272 272 273 274 274 274 275 275 275 277 281 281 277 276 278 280 281 282 283 284 285 286 285 287 288 286 284 282 281 282 282 283 284 287 288 286 284 283 284 286 286 288 288 286 285 283 279 273
262 262 263 263 263 264 264 265 265 266 266 267 267 266 266 266 266 267 266 266 267 268 268 268 269 268 268 269 269 269 268 268 267 267 267 267 268 269 268 269 270 271 272 272 273 275 275 274 276 277 278 276 276 278 280 280 280 280 282 283 284 284 285 287 286 284 283 283 285 286 286 286 288 289 288 287 287 287 286 286 287 286 286 286 286 283 278 274
261 262 263 263 264 264 264 265 265 266 267 267 267 267 267 267 266 267 267 266 266 267 268 268 268 269 268 268 268 268 268 269 269 268 268 268 268 269 269 268 269 269 270 270 272 274 274 274 275 277 277 277 277 278 278 279 279 280 281 283 283 284 285 285 284 284 284 283 285 286 286 288 290 290 289 289 289 290 292 292 291 288 286 285 283 281 278 277
261 262 263 264 264 264 265 266 266 266 266 266 266 266 267 267 267 267 268 268 266 265 267 269 269 269 269 269 269 269 269 270 270 269 270 270 269 269 270 270 269 269 270 271 272 273 274 275 275 275 277 277 277 277 276 277 278 280 281 282 282 283 285 284 285 285 285 284 284 284 285 288 289 289 290 292 292 293 296 297 296 294 291 288 282 278 276 275
262 263 265 265 265 265 266 267 268 267 266 265 265 266 267 267 268 269 269 270 269 267 266 268 269 270 270 271 271 271 271 272 273 273 272 272 271 271 271 272 271 271 271 272 271 271 272 273 275 276 275 275 275 275 275 276 277 279 279 279 280 282 284 284 285 286 285 285 284 284 286 287 288 288 291 294 296 297 298 296 294 294 293 292 289 284 279 273
263 264 265 266 266 267 268 269 269 268 266 265 265 266 267 268 269 270 271 271 271 269 268 267 268 270 271 272 272 273 274 275 275 276 275 274 274 273 272 272 272 272 273 272 271 270 270 271 274 276 275 274 274 274 276 277 277 277 277 279 281 282 282 282 283 283 283 284 284 284 286 285 286 288 290 293 294 297 298 295 293 292 292 291 291 291 288 280
263 264 264 266 267 268 268 269 268 267 266 265 265 266 268 269 270 272 272 273 272 271 271 270 269 269 270 273 274 275 276 276 276 277 277 276 274 274 273 272 272 272 272 272 271 270 271 272 274 274 274 274 274 276 276 277 277 277 277 279 281 280 280 280 281 281 281 282 283 285 286 285 286 288 291 292 294 294 294 293 293 294 293 293 294 294 293 290
263 264 264 265 265 265 267 267 268 268 267 266 265 266 268 269 272 273 273 274 272 272 272 272 271 270 271 272 273 275 276 277 277 277 277 277 276 275 274 274 273 272 272 273 272 271 271 273 273 273 273 275 277 278 278 278 278 278 279 279 279 279 279 279 279 280 280 280 281 283 284 285 286 289 291 291 292 291 290 290 291 293 296 299 301 298 293 292
262 263 263 263 263 263 265 266 267 268 267 267 266 267 268 270 272 273 273 273 272 271 272 272 273 273 273 274 273 274 275 276 277 278 278 278 278 277 277 276 275 274 273 273 273 273 273 273 273 273 274 275 276 278 278 279 279 278 279 279 279 279 279 278 278 278 279 280 281 282 284 285 286 289 291 290 290 290 289 289 289 292 296 299 301 295 286 284
263 265 265 264 263 264 264 265 267 267 267 267 267 267 268 269 270 272 272 272 271 270 271 272 273 275 276 276 276 275 275 275 276 277 278 279 279 278 278 276 276 275 274 273 274 275 275 275 275 275 276 277 277 277 278 279 279 279 280 280 279 279 278 278 278 279 279 279 280 282 285 287 288 289 290 289 289 290 289 289 291 295 297 295 294 290 284 280
267 268 267 265 263 263 264 264 265 265 265 266 267 268 268 268 268 269 269 269 269 270 271 273 273 275 276 277 278 278 278 277 277 277 278 279 280 279 279 277 276 276 275 275 275 275 276 277 277 278 278 279 278 278 278 279 279 279 279 279 279 279 279 280 280 281 281 281 282 284 286 287 287 286 286 287 287 288 288 289 293 296 297 294 290 287 284 282
265 261 260 264 264 263 263 263 263 264 265 265 266 267 268 268 269 268 267 267 269 270 271 272 273 274 275 277 278 279 280 280 280 280 280 279 279 278 278 278 278 279 279 280 279 279 280 280 280 280 281 280 279 278 279 279 279 278 278 279 279 280 281 281 281 281 281 282 284 285 285 285 284 283 284 285 285 287 288 290 293 294 292 290 286 282 280 282
261 253 251 261 267 265 262 261 261 264 265 265 265 266 267 268 268 268 269 269 270 271 271 271 272 273 274 274 276 277 280 281 281 281 280 279 278 278 279 280 282 284 284 285 285 284 285 284 284 285 284 282 282 283 283 282 281 280 280 280 280 281 281 280 280 280 281 282 282 281 281 281 281 282 282 281 282 286 288 289 289 288 286 284 282 282 282 284
259 254 246 251 260 263 262 262 261 262 263 263 264 266 266 267 268 268 269 268 268 269 270 270 270 272 273 274 276 278 280 282 282 282 281 281 281 281 282 283 284 284 284 285 286 286 286 286 286 286 285 285 286 286 284 283 283 281 280 280 279 279 279 278 279 280 281 280 278 277 278 278 279 280 280 279 280 282 282 282 282 281 281 280 279 281 282 283
256 253 244 240 246 253 254 255 255 255 254 254 256 256 256 262 266 266 265 263 261 262 263 266 269 271 273 275 278 280 280 280 279 280 280 280 281 280 279 279 280 280 281 283 283 284 284 285 286 286 285 286 285 283 281 282 281 281 281 279 278 279 279 279 280 279 277 275 274 275 275 275 276 277 278 279 279 278 276 277 278 277 277 278 278 278 278 279
253 249 246 242 239 241 242 242 243 244 242 241 243 243 246 254 258 258 258 257 258 260 261 264 268 270 272 274 277 278 278 278 278 277 276 276 277 278 278 278 278 279 279 280 281 281 281 282 283 283 282 282 281 279 279 278 278 279 279 277 277 278 277 276 275 274 274 273 274 275 275 275 276 276 276 276 276 277 277 277 276 276 276 277 278 279 278 278
247 244 245 245 244 243 242 242 243 245 244 243 243 240 242 248 249 252 256 258 262 267 268 269 269 269 271 273 274 275 275 276 277 276 276 277 277 278 279 279 279 279 279 278 278 279 279 280 281 280 278 277 275 274 274 274 274 274 273 272 273 273 270 270 270 269 269 269 271 274 275 275 275 274 274 273 272 273 276 277 278 278 278 278 279 279 279 278
245 243 242 243 246 247 249 251 254 257 257 258 255 246 243 246 249 256 263 264 268 271 271 271 269 268 270 272 273 275 275 274 274 275 276 277 278 278 279 279 278 278 278 277 277 277 277 278 280 280 279 277 275 273 272 271 271 271 272 271 272 271 269 271 272 271 269 268 268 268 269 271 272 273 274 275 274 273 274 276 278 279 280 280 281 281 280 279
250 250 248 249 253 255 257 259 262 264 267 268 264 256 253 255 258 264 269 271 272 273 273 273 272 272 272 272 274 276 277 276 277 277 277 278 279 279 279 280 279 279 279 278 277 277 277 277 279 280 280 279 277 276 274 272 271 272 272 272 272 272 273 273 274 274 274 274 272 269 266 266 268 272 275 276 277 278 278 277 277 277 278 279 280 281 281 280
253 255 255 257 261 264 265 267 268 269 271 271 269 267 267 268 268 270 273 275 276 275 275 275 275 275 275 275 276 276 277 278 279 280 280 280 281 281 281 282 283 283 282 281 280 280 280 280 280 281 280 279 279 278 277 276 275 273 273 272 271 272 273 274 275 276 277 278 278 276 273 270 269 272 275 277 279 279 279 279 279 279 278 277 276 276 276 276
255 256 257 258 264 268 269 271 272 272 273 273 273 274 274 274 274 275 276 277 276 275 275 275 275 276 276 276 277 277 278 279 279 280 280 281 282 282 282 283 284 284 284 284 284 284 284 283 283 283 281 281 282 281 280 280 279 277 275 275 274 274 274 274 274 276 277 278 279 280 279 277 275 275 276 277 277 276 276 277 278 278 278 276 274 272 271 270
258 259 258 259 264 268 271 272 273 274 276 276 276 277 278 278 278 278 277 277 276 275 274 274 274 275 276 277 277 277 278 278 278 279 280 281 282 282 283 284 284 283 284 284 284 284 285 284 285 285 284 284 284 284 282 282 281 279 277 276 276 276 276 276 276 276 277 276 277 279 279 279 277 276 275 274 274 274 274 275 274 274 274 274 272 271 269 269
261 261 261 261 264 267 270 272 273 275 276 277 278 280 281 281 281 280 279 278 277 277 276 275 275 276 276 276 276 276 276 276 277 278 278 280 280 280 281 282 282 282 283 282 282 283 284 284 284 284 284 284 284 283 283 284 283 280 278 278 278 277 277 277 277 278 277 276 278 278 277 277 275 271 269 269 268 269 271 273 273 273 272 272 271 270 270 269
262 263 263 263 265 266 268 270 271 273 276 278 280 281 281 281 281 281 281 280 279 278 277 275 274 274 274 274 275 275 275 275 276 277 277 278 278 278 279 280 280 280 281 281 282 283 283 283 283 284 283 283 283 282 283 283 281 279 278 278 278 278 278 278 279 280 278 276 275 274 271 270 271 268 265 265 267 268 271 273 273 272 271 270 269 269 269 270
263 263 264 264 265 266 267 269 270 272 274 276 277 278 279 279 279 280 280 280 279 277 275 274 272 271 272 272 273 274 274 274 276 277 276 276 276 276 276 277 277 278 279 280 281 281 281 281 280 281 281 282 283 283 283 282 281 279 279 279 277 277 277 277 277 276 274 271 269 266 264 265 266 266 266 268 269 269 269 269 269 268 267 266 266 267 268 269
263 264 264 264 265 266 267 269 270 271 272 273 273 274 275 277 277 278 278 278 277 275 274 273 273 272 271 271 272 273 272 273 274 274 275 275 275 274 275 275 276 277 278 278 279 278 278 278 278 278 278 280 282 283 283 281 279 277 276 275 274 275 276 276 275 272 269 266 264 262 263 265 265 265 266 267 269 269 268 266 266 266 265 264 264 265 268 268
263 263 264 265 266 266 267 268 269 270 271 272 272 273 274 275 275 275 274 274 274 274 274 274 274 273 273 273 273 273 272 271 271 272 274 275 275 275 275 276 277 278 278 279 278 277 277 277 277 277 277 278 279 280 279 277 275 274 273 271 272 273 274 274 273 271 269 268 265 264 264 266 266 267 268 269 270 270 270 269 269 268 267 266 266 268 270 270
262 263 263 264 265 266 267 267 268 270 270 271 271 271 272 272 273 272 272 273 273 274 274 274 275 275 275 275 274 274 274 272 272 274 276 276 276 277 277 278 279 279 280 280 279 278 277 276 278 277 276 277 278 277 277 275 273 273 272 271 273 274 274 273 272 271 272 272 270 268 268 269 269 269 270 271 272 271 270 269 269 269 269 269 269 270 271 272
262 262 263 263 264 265 266 267 268 268 268 269 269 270 271 271 271 272 272 272 273 273 273 273 274 274 275 275 274 275 275 275 274 275 276 277 277 277 278 279 279 279 280 280 279 278 276 276 278 277 276 276 277 276 276 275 273 272 272 273 274 274 275 275 273 272 271 272 273 273 272 271 271 270 270 270 271 272 272 271 271 270 270 270 270 270 271 272
262 263 263 263 264 265 265 266 266 266 267 267 268 269 270 271 271 271 272 272 272 272 272 272 273 273 274 273 273 274 274 274 274 275 275 276 276 277 278 278 278 279 279 278 278 277 276 277 278 276 275 276 275 276 276 274 273 273 273 273 274 275 276 274 272 272 273 273 274 275 274 273 272 271 271 270 270 271 271 271 272 272 272 272 272 272 273 273
262 262 263 263 263 264 264 264 265 265 266 266 267 269 270 270 270 270 270 270 271 271 271 272 272 273 273 272 272 273 273 273 273 274 275 275 275 276 276 277 278 279 278 277 277 276 276 276 277 277 276 275 276 277 275 273 273 273 273 274 277 279 278 275 274 275 275 275 275 275 275 275 274 273 272 272 271 271 272 272 272 272 272 273 273 273 274 274
261 262 262 262 263 263 264 264 264 265 265 266 267 268 268 267 268 269 269 270 270 271 271 271 272 272 271 271 272 272 272 272 272 273 274 274 275 275 275 276 277 277 277 277 276 276 276 276 276 276 275 275 277 277 274 273 273 272 274 278 282 281 279 278 277 277 276 277 277 276 275 275 275 274 274 273 273 273 273 274 273 273 273 273 273 273 273 273
260 261 261 262 262 262 263 264 264 264 265 266 267 267 266 266 267 267 268 269 269 270 270 270 270 270 270 270 271 272 273 273 273 273 273 274 275 275 275 275 276 276 277 276 276 276 277 277 277 277 276 277 278 277 275 274 273 273 278 283 284 281 280 279 279 278 279 280 279 278 278 278 277 277 277 277 276 276 276 275 275 275 274 273 273 273 273 273
Height
5867 5867 5868 5868 5868 5868 5869 5869 5869 5869 5869 5869 5870 5870 5870 5870 5870 5870 5870 5871 5871 5871 5871 5871 5871 5871 5871 5871 5871 5871 5871 5870 5870 5870 5870 5870 5869 5869 5868 5868 5867 5867 5867 5867 5866 5865 5865 5864 5864 5863 5863 5862 5862 5861 5861 5861 5860 5860 5859 5859 5858 5856 5855 5854 5854 5853 5853 5852 5851 5851 5851 5849 5848 5847 5847 5846 5845 5844 5844 5843 5843 5842 5841 5840 5839 5840 5840 5840
5865 5865 5866 5866 5866 5866 5867 5867 5867 5867 5867 5867 5868 5868 5868 5868 5868 5868 5869 5869 5869 5869 5869 5869 5869 5869 5869 5869 5869 5869 5869 5868 5868 5868 5868 5868 5867 5867 5866 5866 5865 5865 5865 5864 5864 5863 5863 5862 5862 5861 5861 5860 5860 5859 5859 5859 5858 5858 5857 5857 5856 5854 5853 5853 5851 5851 5851 5851 5850 5849 5849 5847 5846 5845 5845 5845 5843 5842 5842 5841 5839 5840 5839 5837 5836 5837 5838 5837
5863 5863 5864 5864 5864 5864 5865 5865 5865 5865 5865 5866 5866 5866 5866 5866 5866 5867 5867 5867 5867 5867 5867 5867 5867 5867 5867 5867 5867 5867 5866 5866 5865 5866 5866 5865 5865 5864 5864 5863 5863 5863 5862 5862 5861 5861 5860 5860 5859 5859 5858 5858 5858 5857 5857 5857 5856 5856 5855 5855 5854 5852 5852 5851 5849 5848 5848 5848 5848 5847 5846 5845 5844 5843 5843 5842 5842 5841 5840 5838 5837 5837 5837 5835 5834 5834 5835 5834
5860 5861 5861 5861 5862 5862 5862 5863 5863 5863 5863 5863 5863 5864 5864 5864 5864 5864 5864 5864 5864 5865 5865 5865 5865 5865 5865 5865 5865 5865 5864 5863 5862 5863 5863 5863 5862 5862 5861 5861 5861 5860 5860 5859 5859 5858 5857 5857 5856 5856 5856 5855 5856 5855 5854 5854 5853 5854 5854 5852 5851 5850 5850 5849 5847 5847 5845 5845 5846 5845 5844 5843 5842 5842 5841 5840 5840 5840 5838 5836 5835 5835 5835 5833 5831 5832 5833 5832
5857 5858 5858 5859 5859 5860 5860 5860 5860 5861 5861 5861 5861 5861 5861 5861 5862 5861 5862 5862 5862 5862 5862 5862 5863 5863 5863 5863 5863 5862 5861 5859 5859 5860 5860 5860 5859 5859 5859 5858 5858 5857 5857 5856 5856 5855 5855 5854 5854 5854 5853 5853 5853 5853 5852 5852 5851 5851 5852 5850 5849 5847 5847 5847 5845 5844 5843 5842 5843 5842 5841 5840 5840 5840 5839 5838 5839 5839 5836 5833 5832 5833 5833 5831 5830 5829 5830 5830
5854 5855 5855 5856 5856 5857 5857 5857 5858 5858 5858 5858 5858 5859 5859 5859 5859 5859 5859 5859 5859 5859 5859 5860 5860 5860 5860 5860 5860 5860 5859 5856 5856 5857 5857 5857 5856 5856 5856 5855 5855 5854 5854 5853 5853 5852 5852 5851 5851 5851 5851 5851 5851 5851 5850 5849 5848 5848 5849 5848 5846 5844 5844 5844 5842 5842 5841 5839 5839 5839 5838 5838 5837 5836 5837 5837 5837 5837 5833 5830 5830 5831 5831 5829 5829 5827 5827 5827
5851 5852 5852 5853 5853 5854 5854 5854 5855 5855 5855 5855 5855 5856 5855 5856 5856 5856 5856 5856 5856 5856 5856 5856 5856 5857 5857 5857 5857 5857 5856 5852 5851 5854 5854 5853 5853 5853 5853 5852 5852 5851 5851 5850 5850 5850 5849 5849 5848 5848 5848 5848 5848 5848 5847 5846 5845 5845 5846 5845 5843 5842 5842 5841 5839 5839 5838 5836 5836 5835 5834 5835 5834 5832 5835 5836 5835 5834 5830 5828 5829 5829 5829 5827 5827 5826 5825 5825
5848 5849 5849 5849 5850 5850 5851 5851 5851 5852 5852 5852 5852 5852 5852 5852 5852 5852 5852 5852 5853 5852 5853 5852 5853 5853 5853 5854 5853 5854 5854 5848 5847 5849 5850 5850 5850 5850 5850 5849 5849 5848 5848 5847 5847 5846 5846 5846 5845 5845 5845 5846 5845 5845 5844 5842 5842 5842 5843 5842 5840 5840 5839 5838 5836 5836 5835 5833 5832 5830 5831 5832 5831 5829 5832 5834 5832 5830 5827 5826 5827 5826 5826 5825 5824 5824 5823 5823
5845 5845 5845 5846 5846 5847 5847 5848 5848 5848 5848 5848 5848 5849 5849 5849 5849 5849 5849 5849 5849 5849 5849 5849 5849 5849 5849 5850 5850 5851 5851 5844 5843 5845 5846 5846 5847 5847 5847 5846 5846 5845 5845 5844 5844 5843 5843 5843 5842 5842 5842 5842 5843 5842 5840 5839 5838 5839 5839 5838 5837 5836 5836 5835 5834 5833 5830 5829 5828 5826 5827 5829 5828 5825 5830 5832 5828 5826 5824 5824 5825 5823 5823 5822 5821 5821 5821 5820
5841 5841 5842 5842 5843 5843 5843 5844 5844 5844 5844 5844 5845 5845 5845 5845 5845 5845 5845 5845 5845 5844 5845 5845 5845 5845 5846 5846 5847 5849 5847 5841 5841 5842 5842 5843 5844 5844 5844 5843 5843 5843 5842 5841 5841 5840 5840 5839 5839 5838 5838 5839 5839 5838 5837 5836 5835 5835 5834 5834 5834 5833 5833 5832 5831 5830 5826 5825 5824 5822 5823 5826 5825 5823 5827 5828 5823 5822 5823 5822 5821 5820 5820 5820 5819 5819 5818 5818
5836 5837 5838 5838 5839 5839 5839 5840 5840 5840 5840 5841 5841 5841 5841 5841 5841 5841 5841 5841 5841 5841 5840 5841 5841 5841 5842 5843 5845 5845 5843 5839 5839 5839 5839 5840 5840 5841 5841 5840 5840 5840 5839 5839 5838 5837 5836 5836 5835 5834 5834 5835 5835 5834 5833 5833 5831 5831 5829 5828 5830 5829 5829 5830 5828 5826 5823 5821 5822 5818 5818 5823 5822 5820 5823 5823 5818 5818 5820 5820 5819 5817 5817 5817 5817 5817 5816 5815
5832 5833 5833 5834 5834 5835 5835 5835 5836 5836 5837 5837 5837 5837 5837 5837 5837 5837 5837 5837 5837 5837 5837 5837 5838 5838 5839 5841 5842 5841 5839 5838 5837 5836 5835 5836 5837 5837 5837 5837 5837 5836 5835 5835 5834 5833 5832 5832 5832 5831 5831 5831 5831 5830 5829 5829 5827 5827 5825 5822 5826 5826 5825 5827 5824 5823 5821 5819 5819 5814 5811 5817 5819 5818 5820 5818 5815 5816 5815 5816 5816 5815 5815 5815 5814 5813 5813 5812
5828 5829 5829 5830 5830 5831 5831 5831 5832 5832 5833 5833 5833 5834 5834 5834 5834 5834 5833 5833 5833 5833 5833 5833 5834 5834 5835 5838 5839 5837 5836 5836 5834 5833 5832 5832 5833 5834 5833 5833 5833 5832 5832 5831 5830 5830 5828 5828 5827 5827 5827 5827 5826 5826 5825 5825 5824 5824 5820 5817 5821 5821 5821 5824 5821 5821 5819 5815 5815 5810 5804 5810 5815 5815 5816 5814 5813 5812 5812 5812 5813 5813 5812 5811 5811 5810 5809 5808
5824 5824 5824 5825 5826 5826 5827 5827 5828 5828 5829 5829 5829 5830 5830 5830 5830 5830 5830 5829 5829 5829 5829 5829 5830 5830 5831 5834 5836 5834 5833 5832 5831 5830 5829 5829 5829 5830 5829 5829 5829 5828 5828 5827 5826 5825 5824 5824 5823 5822 5823 5823 5822 5822 5821 5820 5820 5821 5816 5813 5816 5813 5815 5820 5819 5819 5817 5811 5811 5806 5798 5802 5810 5812 5812 5811 5810 5809 5808 5809 5810 5810 5809 5807 5807 5806 5804 5804
5819 5820 5820 5820 5821 5822 5822 5823 5823 5824 5824 5824 5825 5825 5826 5826 5826 5826 5825 5825 5825 5825 5825 5825 5826 5825 5827 5830 5831 5830 5830 5828 5827 5827 5826 5826 5826 5826 5826 5825 5824 5824 5823 5822 5822 5821 5820 5819 5818 5818 5818 5819 5818 5818 5817 5814 5815 5818 5813 5809 5811 5807 5808 5813 5815 5817 5814 5807 5806 5803 5795 5795 5804 5808 5807 5806 5807 5806 5804 5805 5807 5806 5805 5803 5802 5801 5800 5800
5815 5815 5816 5816 5817 5817 5818 5818 5818 5819 5819 5820 5820 5821 5821 5821 5821 5821 5821 5821 5821 5821 5821 5821 5821 5820 5821 5825 5827 5826 5826 5824 5823 5823 5822 5822 5822 5822 5822 5821 5820 5820 5819 5818 5817 5817 5816 5814 5814 5813 5813 5815 5816 5814 5813 5809 5809 5813 5808 5804 5806 5805 5804 5805 5807 5812 5811 5804 5800 5798 5793 5792 5798 5802 5802 5802 5803 5802 5800 5801 5803 5802 5800 5799 5798 5797 5796 5795
5810 5811 5811 5812 5812 5813 5813 5813 5814 5814 5815 5815 5815 5816 5816 5816 5816 5816 5816 5816 5816 5817 5816 5816 5817 5816 5816 5820 5822 5821 5821 5820 5819 5819 5818 5818 5818 5818 5817 5817 5816 5815 5814 5814 5813 5812 5812 5810 5809 5808 5808 5812 5814 5811 5808 5803 5804 5807 5803 5800 5801 5801 5800 5801 5802 5806 5806 5801 5795 5792 5790 5791 5794 5795 5798 5800 5799 5797 5796 5797 5798 5797 5797 5795 5794 5794 5792 5791
5806 5806 5807 5807 5808 5808 5808 5808 5809 5809 5810 5810 5810 5810 5811 5811 5811 5811 5811 5811 5812 5812 5812 5811 5812 5811 5811 5814 5816 5816 5816 5815 5814 5814 5814 5814 5814 5813 5813 5812 5811 5811 5809 5809 5809 5808 5807 5805 5804 5803 5805 5810 5811 5807 5802 5799 5801 5800 5797 5797 5796 5795 5795 5796 5798 5800 5799 5796 5792 5789 5787 5788 5788 5789 5793 5796 5795 5791 5791 5794 5793 5792 5793 5792 5791 5790 5789 5788
5801 5802 5802 5802 5803 5803 5803 5804 5804 5804 5805 5805 5805 5805 5805 5806 5806 5806 5806 5806 5807 5807 5806 5807 5808 5806 5806 5808 5809 5809 5810 5810 5809 5809 5810 5810 5809 5809 5808 5807 5807 5806 5804 5804 5804 5804 5803 5800 5799 5799 5803 5807 5804 5800 5798 5798 5798 5795 5793 5792 5791 5790 5790 5791 5794 5795 5792 5788 5787 5787 5786 5784 5783 5784 5788 5789 5789 5786 5786 5789 5790 5789 5788 5787 5787 5787 5786 5784
5796 5797 5797 5797 5798 5798 5798 5798 5799 5799 5799 5800 5800 5800 5800 5801 5801 5800 5801 5802 5802 5802 5802 5801 5802 5802 5802 5802 5803 5804 5804 5804 5804 5805 5806 5805 5805 5804 5803 5802 5802 5801 5800 5800 5798 5799 5800 5794 5792 5797 5801 5801 5796 5794 5795 5795 5794 5790 5788 5787 5787 5785 5784 5786 5788 5789 5787 5781 5780 5783 5781 5780 5779 5780 5782 5781 5782 5782 5782 5784 5785 5785 5784 5782 5782 5782 5782 5779
5791 5791 5792 5792 5792 5793 5793 5793 5793 5793 5794 5794 5795 5795 5795 5795 5795 5794 5795 5797 5797 5797 5797 5797 5796 5796 5798 5797 5796 5798 5797 5798 5800 5801 5802 5801 5801 5799 5798 5798 5797 5796 5796 5795 5793 5794 5794 5789 5788 5793 5796 5794 5791 5791 5790 5789 5788 5786 5784 5782 5782 5781 5779 5782 5782 5781 5782 5777 5775 5776 5774 5774 5775 5775 5775 5774 5775 5776 5777 5779 5780 5781 5780 5779 5778 5777 5776 5774
5786 5786 5787 5787 5787 5787 5787 5788 5788 5788 5789 5789 5789 5789 5789 5789 5789 5788 5788 5790 5792 5793 5791 5791 5790 5790 5791 5790 5792 5793 5791 5792 5794 5796 5797 5796 5796 5794 5792 5793 5793 5792 5791 5791 5791 5790 5788 5785 5784 5788 5790 5789 5788 5787 5785 5783 5782 5781 5780 5778 5776 5776 5775 5776 5775 5774 5775 5775 5772 5771 5768 5767 5769 5768 5767 5768 5769 5770 5770 5771 5773 5775 5775 5775 5774 5772 5771 5769
5780 5781 5781 5781 5781 5782 5782 5782 5782 5783 5783 5783 5783 5783 5783 5783 5783 5782 5781 5781 5785 5788 5786 5785 5784 5783 5784 5784 5786 5787 5785 5787 5788 5789 5792 5791 5790 5790 5788 5787 5788 5787 5785 5786 5787 5785 5783 5780 5779 5783 5785 5783 5782 5782 5780 5778 5777 5777 5776 5774 5771 5772 5771 5769 5769 5768 5768 5769 5768 5766 5764 5763 5763 5761 5762 5761 5760 5763 5764 5763 5764 5765 5766 5768 5769 5769 5767 5765
5774 5775 5775 5775 5776 5776 5776 5776 5776 5776 5776 5777 5777 5777 5777 5777 5776 5776 5776 5774 5776 5781 5782 5780 5777 5777 5778 5777 5779 5780 5780 5781 5782 5783 5786 5785 5784 5785 5784 5782 5782 5781 5780 5781 5782 5780 5778 5774 5773 5777 5780 5778 5775 5775 5774 5773 5773 5773 5771 5768 5767 5769 5767 5764 5764 5762 5761 5761 5761 5760 5759 5759 5758 5755 5757 5757 5753 5755 5757 5756 5757 5757 5757 5758 5759 5761 5762 5761
5769 5769 5769 5770 5770 5770 5770 5770 5770 5770 5770 5770 5771 5771 5771 5771 5770 5770 5770 5768 5767 5771 5775 5775 5773 5772 5772 5771 5773 5774 5774 5775 5776 5776 5778 5778 5778 5778 5778 5778 5777 5776 5775 5775 5775 5774 5773 5771 5770 5771 5771 5771 5770 5769 5768 5768 5768 5767 5765 5763 5764 5765 5763 5761 5760 5757 5756 5755 5753 5754 5755 5754 5753 5752 5753 5754 5751 5750 5749 5748 5750 5750 5749 5750 5751 5752 5754 5756
5763 5764 5764 5764 5765 5764 5764 5764 5764 5764 5764 5764 5765 5765 5765 5765 5765 5765 5764 5763 5761 5763 5766 5768 5768 5767 5767 5766 5766 5768 5768 5769 5770 5770 5771 5771 5771 5772 5772 5772 5772 5771 5769 5769 5769 5768 5767 5767 5767 5766 5764 5764 5764 5764 5763 5762 5761 5761 5761 5761 5760 5760 5758 5757 5756 5753 5752 5750 5748 5748 5748 5747 5748 5749 5748 5748 5748 5745 5742 5743 5743 5740 5740 5742 5745 5746 5746 5749
5757 5758 5759 5759 5759 5759 5759 5758 5758 5759 5758 5759 5759 5759 5760 5760 5760 5760 5759 5757 5756 5757 5757 5758 5760 5761 5762 5762 5761 5762 5762 5762 5763 5764 5764 5765 5765 5765 5765 5765 5766 5765 5764 5763 5762 5763 5763 5763 5762 5761 5760 5759 5759 5758 5757 5756 5755 5755 5756 5756 5755 5754 5753 5752 5751 5749 5747 5746 5746 5744 5743 5743 5743 5744 5743 5743 5742 5738 5738 5739 5737 5735 5734 5734 5737 5739 5739 5741
5752 5753 5753 5753 5753 5753 5753 5753 5754 5754 5753 5753 5754 5753 5754 5755 5755 5755 5754 5751 5751 5752 5751 5751 5752 5753 5755 5756 5757 5757 5757 5757 5757 5757 5758 5759 5759 5759 5759 5759 5759 5758 5759 5758 5757 5757 5758 5758 5757 5756 5756 5755 5754 5753 5752 5751 5750 5750 5750 5750 5749 5748 5747 5746 5745 5744 5743 5741 5741 5741 5739 5738 5740 5740 5737 5735 5733 5731 5733 5734 5732 5733 5733 5730 5731 5733 5733 5734
5746 5747 5747 5747 5747 5747 5748 5748 5748 5748 5748 5748 5748 5748 5749 5750 5750 5750 5748 5746 5746 5745 5746 5747 5746 5746 5748 5749 5750 5751 5752 5752 5752 5752 5753 5753 5753 5753 5753 5753 5752 5752 5753 5752 5752 5752 5752 5752 5752 5751 5751 5751 5750 5749 5748 5747 5745 5745 5745 5744 5743 5742 5741 5740 5739 5738 5738 5737 5737 5737 5736 5734 5735 5736 5733 5728 5726 5725 5726 5727 5727 5729 5729 5728 5728 5728 5726 5726
5741 5741 5740 5740 5740 5741 5742 5743 5743 5742 5743 5742 5742 5742 5743 5743 5744 5744 5742 5740 5740 5739 5741 5742 5741 5742 5742 5742 5743 5744 5745 5746 5746 5747 5747 5747 5747 5747 5747 5746 5746 5746 5746 5746 5747 5746 5746 5747 5746 5746 5746 5745 5744 5744 5743 5742 5741 5740 5740 5738 5737 5736 5735 5734 5733 5733 5732 5731 5732 5733 5732 5731 5730 5730 5727 5724 5722 5720 5720 5722 5724 5724 5724 5723 5722 5722 5721 5720
5736 5736 5734 5732 5734 5736 5737 5737 5736 5737 5738 5737 5737 5737 5736 5737 5738 5737 5735 5734 5734 5734 5737 5737 5735 5737 5737 5736 5737 5737 5738 5738 5739 5740 5741 5741 5741 5741 5741 5740 5739 5739 5738 5738 5738 5739 5740 5740 5740 5740 5740 5739 5737 5737 5738 5737 5735 5735 5734 5733 5731 5731 5730 5728 5727 5727 5727 5727 5728 5728 5726 5725 5724 5724 5723 5719 5717 5717 5716 5717 5720 5719 5719 5719 5717 5716 5715 5715
5731 5730 5729 5726 5727 5731 5731 5731 5731 5732 5732 5732 5732 5731 5731 5731 5730 5729 5728 5729 5729 5729 5731 5731 5730 5731 5731 5731 5731 5731 5731 5731 5732 5734 5733 5734 5734 5735 5734 5733 5732 5731 5730 5730 5729 5730 5731 5732 5732 5733 5733 5732 5730 5731 5731 5730 5729 5728 5728 5727 5725 5725 5723 5721 5720 5720 5722 5724 5723 5722 5720 5719 5717 5717 5719 5715 5713 5715 5714 5712 5714 5715 5714 5713 5712 5710 5709 5708
5727 5726 5724 5722 5722 5723 5724 5724 5725 5726 5726 5726 5726 5726 5726 5725 5723 5723 5723 5725 5725 5724 5725 5725 5724 5725 5725 5726 5725 5725 5725 5724 5725 5726 5726 5726 5727 5728 5728 5727 5726 5725 5723 5724 5723 5722 5723 5724 5725 5725 5725 5725 5725 5724 5723 5722 5722 5722 5722 5722 5720 5720 5716 5714 5715 5715 5717 5717 5714 5715 5715 5713 5712 5710 5710 5710 5710 5713 5711 5707 5708 5709 5708 5707 5706 5706 5704 5702
5721 5721 5719 5718 5717 5716 5717 5718 5718 5719 5719 5719 5720 5720 5720 5719 5718 5718 5719 5721 5720 5719 5720 5719 5719 5720 5720 5719 5718 5719 5719 5718 5719 5720 5719 5720 5720 5722 5723 5722 5721 5719 5718 5718 5718 5717 5717 5718 5719 5719 5719 5720 5719 5718 5716 5716 5715 5714 5716 5715 5713 5714 5711 5708 5709 5709 5709 5708 5707 5709 5708 5707 5708 5704 5702 5702 5703 5704 5703 5702 5702 5703 5702 5700 5700 5701 5699 5697
5714 5714 5714 5713 5711 5710 5710 5710 5711 5712 5711 5712 5712 5712 5714 5715 5715 5714 5715 5716 5714 5713 5715 5714 5714 5714 5714 5713 5712 5712 5712 5711 5713 5714 5714 5714 5715 5716 5717 5717 5716 5714 5712 5711 5710 5710 5711 5713 5715 5714 5714 5715 5714 5713 5712 5710 5709 5708 5710 5709 5707 5709 5707 5702 5700 5701 5700 5697 5698 5703 5701 5700 5703 5700 5696 5696 5696 5695 5694 5694 5696 5695 5695 5694 5693 5693 5692 5691
5706 5706 5707 5707 5705 5704 5703 5704 5704 5704 5704 5705 5704 5706 5709 5711 5711 5710 5709 5709 5708 5707 5708 5708 5709 5709 5708 5708 5707 5706 5706 5706 5706 5707 5707 5707 5708 5710 5711 5711 5710 5708 5707 5704 5702 5703 5703 5705 5708 5707 5707 5709 5709 5708 5707 5705 5704 5702 5703 5704 5703 5703 5700 5695 5691 5693 5694 5687 5689 5697 5694 5694 5698 5694 5689 5689 5690 5690 5687 5686 5687 5686 5687 5687 5685 5684 5683 5683
5697 5697 5699 5699 5697 5697 5697 5697 5696 5696 5696 5697 5697 5701 5705 5705 5706 5705 5703 5703 5702 5700 5700 5700 5701 5704 5704 5703 5701 5700 5699 5700 5700 5700 5701 5700 5699 5703 5704 5704 5704 5702 5700 5698 5695 5696 5696 5696 5700 5701 5698 5699 5702 5702 5701 5700 5698 5695 5695 5698 5697 5692 5691 5689 5683 5683 5686 5680 5682 5691 5690 5689 5690 5687 5683 5681 5681 5684 5683 5681 5680 5678 5677 5677 5676 5675 5674 5673
5689 5689 5691 5692 5690 5689 5690 5689 5688 5688 5688 5688 5691 5696 5698 5699 5700 5699 5697 5696 5695 5693 5693 5693 5694 5696 5697 5696 5697 5695 5691 5691 5693 5692 5694 5694 5692 5695 5696 5694 5695 5695 5693 5691 5688 5687 5687 5688 5693 5696 5690 5687 5691 5693 5691 5692 5692 5689 5687 5689 5689 5684 5682 5683 5676 5674 5676 5672 5673 5681 5685 5686 5686 5682 5679 5674 5672 5675 5675 5672 5671 5670 5670 5668 5667 5666 5665 5664
5682 5682 5684 5686 5683 5681 5682 5680 5680 5681 5680 5681 5687 5690 5691 5692 5692 5691 5690 5690 5688 5687 5687 5687 5687 5687 5688 5689 5691 5690 5686 5685 5686 5684 5684 5685 5685 5686 5686 5685 5686 5686 5684 5683 5680 5678 5678 5677 5683 5691 5686 5678 5681 5684 5682 5682 5682 5681 5679 5678 5679 5677 5675 5675 5670 5668 5669 5664 5662 5667 5671 5678 5682 5679 5675 5670 5667 5666 5664 5662 5661 5661 5662 5661 5660 5659 5657 5656
5675 5674 5678 5681 5676 5672 5673 5671 5671 5672 5673 5676 5680 5681 5682 5683 5682 5683 5683 5682 5681 5680 5680 5680 5680 5679 5681 5682 5683 5682 5680 5679 5679 5678 5676 5677 5678 5676 5677 5678 5678 5677 5676 5674 5672 5670 5669 5667 5670 5680 5680 5673 5673 5674 5673 5674 5672 5669 5669 5669 5669 5669 5668 5666 5663 5664 5664 5658 5656 5656 5654 5663 5673 5672 5669 5665 5661 5658 5656 5655 5654 5653 5653 5652 5651 5650 5649 5648
5667 5666 5671 5675 5669 5666 5665 5661 5662 5665 5665 5668 5672 5672 5672 5672 5673 5674 5674 5673 5672 5672 5673 5674 5673 5673 5673 5674 5674 5674 5672 5670 5672 5671 5669 5671 5672 5668 5668 5671 5671 5670 5670 5668 5665 5663 5662 5659 5658 5665 5669 5668 5667 5663 5663 5666 5664 5660 5660 5661 5661 5661 5660 5657 5653 5657 5658 5651 5650 5650 5644 5649 5661 5663 5660 5657 5653 5649 5648 5648 5646 5645 5644 5642 5641 5641 5640 5639
5659 5659 5664 5666 5661 5660 5658 5654 5657 5659 5656 5661 5664 5663 5662 5662 5664 5664 5663 5664 5664 5663 5664 5665 5666 5666 5666 5665 5666 5665 5664 5662 5664 5665 5663 5665 5666 5662 5662 5664 5663 5664 5663 5661 5659 5658 5656 5653 5650 5652 5657 5661 5661 5656 5653 5655 5656 5653 5651 5652 5654 5653 5652 5650 5645 5647 5649 5643 5643 5643 5635 5637 5648 5652 5650 5648 5645 5643 5641 5639 5637 5636 5635 5634 5632 5631 5630 5630
5651 5652 5655 5656 5653 5653 5650 5649 5653 5652 5651 5655 5656 5653 5653 5654 5655 5655 5654 5655 5655 5655 5656 5656 5657 5658 5657 5657 5657 5658 5657 5654 5656 5659 5657 5658 5659 5656 5656 5657 5657 5657 5656 5654 5652 5651 5650 5646 5643 5642 5644 5648 5652 5650 5647 5646 5647 5646 5644 5645 5646 5645 5645 5644 5640 5639 5637 5634 5636 5635 5627 5628 5638 5642 5640 5638 5638 5636 5634 5632 5629 5626 5625 5624 5623 5622 5621 5620
5643 5643 5646 5646 5645 5644 5642 5644 5647 5646 5647 5649 5647 5646 5647 5646 5647 5648 5646 5646 5647 5647 5647 5648 5649 5649 5649 5650 5649 5651 5650 5646 5648 5652 5651 5651 5651 5650 5650 5650 5650 5650 5648 5647 5646 5644 5642 5641 5638 5636 5634 5636 5641 5643 5642 5640 5639 5639 5639 5639 5639 5639 5638 5637 5635 5633 5627 5625 5629 5626 5619 5622 5629 5630 5630 5630 5629 5628 5627 5625 5621 5618 5616 5614 5613 5612 5612 5611
5635 5635 5636 5637 5636 5635 5636 5639 5640 5639 5640 5641 5639 5641 5641 5639 5641 5641 5640 5639 5640 5640 5639 5640 5641 5641 5641 5642 5642 5643 5643 5640 5640 5643 5645 5644 5643 5643 5644 5642 5642 5642 5640 5639 5638 5635 5634 5633 5633 5630 5627 5627 5630 5634 5636 5633 5630 5630 5632 5631 5631 5632 5631 5629 5627 5624 5619 5618 5619 5616 5612 5616 5620 5621 5621 5620 5618 5617 5617 5615 5613 5610 5607 5605 5604 5602 5602 5601
5626 5626 5628 5629 5627 5627 5629 5632 5632 5631 5632 5632 5631 5634 5634 5633 5633 5634 5633 5632 5632 5632 5632 5632 5633 5633 5633 5634 5634 5635 5636 5634 5632 5633 5637 5637 5634 5634 5636 5635 5634 5633 5632 5631 5629 5627 5625 5625 5626 5625 5621 5620 5621 5624 5627 5625 5620 5620 5622 5622 5622 5624 5624 5622 5617 5613 5611 5609 5605 5607 5610 5608 5610 5613 5613 5610 5607 5606 5607 5605 5603 5600 5597 5596 5594 5592 5592 5591
5617 5618 5621 5620 5618 5619 5622 5624 5624 5624 5624 5623 5623 5626 5627 5626 5625 5625 5626 5626 5625 5626 5625 5624 5626 5626 5626 5627 5626 5625 5628 5627 5624 5625 5628 5629 5626 5625 5626 5627 5626 5624 5624 5623 5621 5619 5616 5615 5619 5619 5614 5614 5615 5614 5616 5615 5611 5610 5611 5612 5615 5617 5615 5613 5608 5604 5604 5597 5590 5599 5605 5598 5598 5605 5604 5598 5594 5593 5595 5595 5593 5591 5588 5586 5584 5583 5581 5580
5609 5610 5612 5612 5609 5611 5614 5616 5617 5616 5615 5615 5615 5618 5620 5619 5617 5616 5617 5619 5619 5619 5618 5617 5619 5619 5619 5620 5617 5617 5619 5619 5616 5618 5619 5620 5619 5617 5617 5619 5618 5617 5618 5615 5613 5612 5606 5605 5611 5610 5606 5608 5608 5605 5606 5605 5601 5600 5601 5602 5606 5608 5607 5604 5597 5594 5595 5587 5581 5589 5593 5587 5588 5592 5591 5587 5583 5580 5581 5583 5582 5580 5577 5575 5575 5573 5571 5569
5601 5602 5603 5603 5602 5604 5606 5608 5608 5607 5607 5607 5607 5610 5612 5611 5609 5608 5609 5611 5611 5612 5612 5610 5611 5612 5611 5611 5610 5609 5611 5610 5608 5610 5612 5612 5611 5609 5608 5609 5609 5610 5610 5607 5604 5603 5598 5597 5601 5600 5596 5599 5601 5599 5597 5593 5589 5589 5591 5593 5596 5598 5598 5594 5588 5586 5585 5579 5577 5580 5577 5574 5578 5579 5576 5575 5573 5570 5570 5570 5570 5568 5565 5563 5563 5563 5561 5559
5593 5594 5594 5593 5594 5596 5597 5599 5599 5599 5599 5599 5600 5604 5605 5603 5602 5601 5600 5602 5603 5604 5605 5603 5602 5604 5603 5602 5602 5602 5604 5603 5601 5602 5603 5603 5603 5602 5601 5601 5601 5601 5602 5599 5596 5594 5591 5589 5590 5589 5585 5586 5593 5594 5587 5582 5579 5578 5580 5584 5588 5589 5587 5582 5580 5580 5576 5570 5570 5570 5564 5562 5565 5565 5562 5562 5561 5561 5560 5559 5558 5556 5553 5552 5552 5551 5550 5547
5585 5585 5585 5584 5585 5588 5589 5590 5591 5590 5590 5592 5594 5597 5596 5594 5595 5593 5590 5593 5596 5596 5596 5595 5595 5595 5594 5593 5594 5594 5595 5595 5593 5594 5594 5594 5594 5594 5593 5593 5594 5593 5593 5591 5587 5585 5584 5581 5581 5581 5574 5574 5585 5585 5574 5572 5571 5567 5570 5577 5581 5579 5574 5571 5571 5570 5566 5561 5559 5556 5552 5551 5550 5550 5550 5550 5550 5551 5551 5548 5546 5544 5541 5541 5541 5540 5539 5536
5577 5576 5577 5576 5576 5579 5580 5581 5582 5581 5582 5585 5587 5587 5587 5586 5588 5585 5582 5584 5588 5588 5588 5588 5587 5587 5586 5585 5586 5586 5586 5586 5585 5585 5585 5585 5585 5585 5585 5585 5586 5585 5585 5583 5579 5578 5577 5572 5571 5571 5563 5563 5575 5573 5563 5561 5558 5556 5565 5574 5573 5569 5563 5559 5559 5558 5558 5554 5546 5540 5539 5539 5537 5537 5538 5537 5537 5540 5540 5537 5534 5531 5528 5528 5528 5529 5527 5524